Location: El Centro
(32.7920°N, 115.5620°W)
Time: 01:36:16
(UTC-07:00)

Amateur Radio Satellites - All Passes

Search period start: 02 August 2014 01:06
Search period end: 03 August 2014 01:06
Location: El Centro, 32.7920°N, 115.5620°W

Satellite Date Start Highest point End Downlink Frequencies (MHz)
Time Altitude Azimuth
Oscar 19 02 Aug 01:08:41 01:11:39 15° 94° (E) 01:14:37 437.125 CW, 437.150 USB
PCSat 02 Aug 01:24:02 01:25:37 11° 312° (NW) 01:27:13 145.825 MHz
Oscar 16 02 Aug 01:36:28 01:41:05 32° 98° (E) 01:45:40 437.025 USB, Beacon 2401.1428
JAS-1B 02 Aug 01:50:40 01:55:44 17° 87° (E) 02:00:20 435.800 - 435.900 CW/SSB
ITAMSAT 1 02 Aug 02:06:52 02:11:10 26° 97° (E) 02:15:26 435.822 SSB
Uribyol 2 02 Aug 02:24:40 02:29:34 43° 100° (E) 02:34:27 436.500 FM
AO-27 02 Aug 02:26:48 02:31:44 43° 100° (E) 02:36:37 436.795 MHz FM
AO-Echo 02 Aug 02:27:42 02:32:27 46° 99° (E) 02:37:02 ?
PANSAT 02 Aug 02:41:09 02:44:35 30° 167° (SSE) 02:48:02 not established
Oscar 19 02 Aug 02:46:12 02:51:12 50° 287° (WNW) 02:56:11 437.125 CW, 437.150 USB
TMSAT-1 02 Aug 02:48:07 02:51:50 19° 95° (E) 02:55:32 436.925 FM
OPAL 02 Aug 03:00:04 03:03:32 19° 65° (ENE) 03:07:00 ?
Gurwin Techsat 1B 02 Aug 03:14:16 03:19:27 52° 100° (E) 03:24:35 435.225 FM
Oscar 16 02 Aug 03:16:06 03:20:13 24° 291° (WNW) 03:24:20 437.025 USB, Beacon 2401.1428
KITSAT 1 02 Aug 03:28:13 03:32:08 14° 101° (E) 03:36:02 435.175 FM
AO-7 02 Aug 03:31:59 03:36:14 15° 93° (E) 03:40:26 29.400 - 29.500 MHz
JAS-1B 02 Aug 03:38:25 03:47:21 79° 286° (WNW) 03:54:46 435.800 - 435.900 CW/SSB
ITAMSAT 1 02 Aug 03:46:09 03:50:34 29° 290° (WNW) 03:54:59 435.822 SSB
ISS 02 Aug 03:53:46 03:55:44 15° 32° (NNE) 03:57:41 145.800 FM
Uribyol 2 02 Aug 04:05:13 04:08:40 18° 293° (WNW) 04:12:07 436.500 FM
AO-27 02 Aug 04:07:23 04:10:51 18° 293° (WNW) 04:14:19 436.795 MHz FM
AO-Echo 02 Aug 04:07:52 04:10:46 16° 294° (WNW) 04:13:36 ?
PANSAT 02 Aug 04:20:47 04:24:29 44° 180° (S) 04:28:11 not established
TMSAT-1 02 Aug 04:26:55 04:31:51 41° 288° (WNW) 04:36:46 436.925 FM
Uosat F 02 Aug 04:28:35 04:33:16 39° 99° (E) 04:37:54 435.120 FM
OPAL 02 Aug 04:37:31 04:42:06 38° 259° (W) 04:46:43 ?
MaSat-1 02 Aug 04:42:08 04:44:23 13° 52° (NE) 04:46:33 437.345 MHz
Gurwin Techsat 1B 02 Aug 04:55:44 04:58:56 16° 294° (WNW) 05:02:07 435.225 FM
KITSAT 1 02 Aug 05:18:19 05:26:26 89° 296° (WNW) 05:34:35 435.175 FM
AO-7 02 Aug 05:21:25 05:29:46 87° 288° (WNW) 05:38:03 29.400 - 29.500 MHz
ISS 02 Aug 05:29:23 05:32:41 55° 227° (SW) 05:35:57 145.800 FM
Hamsat 02 Aug 05:31:11 05:32:33 11° 92° (E) 05:33:55 145.90 MHz
STRAND 1 02 Aug 05:31:28 05:34:11 15° 65° (ENE) 05:36:54 ?
JAS-1B 02 Aug 05:31:50 05:36:05 15° 306° (NW) 05:40:04 435.800 - 435.900 CW/SSB
JAS-2 02 Aug 05:43:49 05:46:27 14° 91° (E) 05:49:01 435.800 - 435.900 CW/SSB, 435.910 FM
Saudisat 1A 02 Aug 05:49:43 05:53:58 51° 115° (ESE) 05:58:16 436.775 MHz
PANSAT 02 Aug 06:00:57 06:04:23 30° 193° (SSW) 06:07:49 not established
Uosat F 02 Aug 06:08:15 06:11:43 19° 293° (WNW) 06:15:10 435.120 FM
MaSat-1 02 Aug 06:17:08 06:22:20 75° 250° (WSW) 06:27:01 437.345 MHz
Hamsat 02 Aug 07:04:32 07:08:42 47° 285° (WNW) 07:12:52 145.90 MHz
STRAND 1 02 Aug 07:07:49 07:12:51 56° 259° (W) 07:17:54 ?
AO-7 02 Aug 07:16:44 07:21:22 16° 305° (NW) 07:26:00 29.400 - 29.500 MHz
KITSAT 1 02 Aug 07:17:34 07:22:54 19° 315° (NW) 07:28:15 435.175 FM
JAS-2 02 Aug 07:26:36 07:32:02 53° 287° (WNW) 07:37:04 435.800 - 435.900 CW/SSB, 435.910 FM
SO-67 02 Aug 07:29:57 07:33:16 41° 99° (E) 07:36:33 435.3500 MHz FM
Saudisat 1A 02 Aug 07:31:22 07:33:50 15° 310° (NW) 07:36:18 436.775 MHz
PANSAT 02 Aug 07:42:34 07:44:04 12° 204° (SSW) 07:45:34 not established
Sapphire 02 Aug 07:57:23 08:00:18 15° 51° (NE) 08:03:13 437.095 MHz 1200 baud AX-25 AFSK
PCSat 02 Aug 08:28:58 08:33:40 29° 57° (ENE) 08:38:20 145.825 MHz
HO-68 02 Aug 08:41:28 08:46:52 23° 96° (E) 08:52:15 435.675 MHz FM
Sapphire 02 Aug 09:38:50 09:44:14 71° 247° (WSW) 09:49:36 437.095 MHz 1200 baud AX-25 AFSK
UKube-1 02 Aug 09:40:42 09:44:52 44° 100° (E) 09:49:00 145.840 MHz, 145.915 MHz
SO-50 02 Aug 09:55:30 09:57:50 14° 108° (ESE) 10:00:11 436.795 FM
PCSat 02 Aug 10:12:17 10:17:00 31° 252° (WSW) 10:21:41 145.825 MHz
Oscar 11 02 Aug 10:20:27 10:24:47 71° 101° (ESE) 10:29:07 145.825 FM, Beacon 2401.500 USB
HO-68 02 Aug 10:27:54 10:34:48 55° 290° (WNW) 10:41:42 435.675 MHz FM
FUNcube-1 02 Aug 10:55:19 10:59:30 61° 101° (E) 11:03:45 145.950 - 145.970 MHz USB
UKube-1 02 Aug 11:18:40 11:20:38 13° 294° (WNW) 11:22:36 145.840 MHz, 145.915 MHz
SO-50 02 Aug 11:33:41 11:37:56 44° 302° (WNW) 11:42:16 436.795 FM
RS-15 02 Aug 11:51:39 12:02:23 53° 110° (ESE) 12:12:49 29.354 - 29.394 USB, Beacon 29.352 USB
Oscar 19 02 Aug 12:22:00 12:24:46 15° 65° (ENE) 12:27:32 437.125 CW, 437.150 USB
JAS-1B 02 Aug 12:30:53 12:34:47 13° 53° (NE) 12:38:46 435.800 - 435.900 CW/SSB
Oscar 16 02 Aug 12:49:22 12:53:47 30° 70° (ENE) 12:58:12 437.025 USB, Beacon 2401.1428
UOSAT-12 02 Aug 13:06:44 13:11:17 73° 299° (WNW) 13:15:57 437.025 FM, 437.400 FM
KITSAT 1 02 Aug 13:17:42 13:23:43 22° 48° (NE) 13:29:41 435.175 FM
ITAMSAT 1 02 Aug 13:20:46 13:25:03 26° 69° (ENE) 13:29:20 435.822 SSB
AO-Echo 02 Aug 13:35:44 13:40:38 40° 72° (ENE) 13:45:33 ?
Uribyol 2 02 Aug 13:38:14 13:43:06 42° 72° (ENE) 13:47:58 436.500 FM
AO-27 02 Aug 13:40:36 13:45:30 43° 72° (ENE) 13:50:24 436.795 MHz FM
Oscar 19 02 Aug 13:58:38 14:03:36 54° 260° (W) 14:08:37 437.125 CW, 437.150 USB
RS-15 02 Aug 14:04:44 14:14:53 40° 309° (NW) 14:24:57 29.354 - 29.394 USB, Beacon 29.352 USB
TMSAT-1 02 Aug 14:04:51 14:08:39 20° 67° (ENE) 14:12:28 436.925 FM
JAS-1B 02 Aug 14:14:24 14:23:12 64° 71° (ENE) 14:32:55 435.800 - 435.900 CW/SSB
Saudisat 1A 02 Aug 14:22:12 14:24:21 13° 49° (NE) 14:26:29 436.775 MHz
AO-7 02 Aug 14:27:11 14:31:45 16° 55° (NE) 14:36:18 29.400 - 29.500 MHz
Oscar 16 02 Aug 14:28:53 14:33:03 25° 264° (W) 14:37:15 437.025 USB, Beacon 2401.1428
Gurwin Techsat 1B 02 Aug 14:30:57 14:36:05 53° 73° (ENE) 14:41:15 435.225 FM
ITAMSAT 1 02 Aug 14:59:51 15:04:23 30° 263° (W) 15:08:55 435.822 SSB
KITSAT 1 02 Aug 15:11:49 15:19:53 77° 246° (WSW) 15:27:54 435.175 FM
AO-Echo 02 Aug 15:15:33 15:19:27 21° 265° (W) 15:23:23 ?
Uribyol 2 02 Aug 15:19:11 15:22:41 18° 265° (W) 15:26:12 436.500 FM
AO-27 02 Aug 15:21:37 15:25:08 18° 265° (W) 15:28:39 436.795 MHz FM
Uosat F 02 Aug 15:37:38 15:42:09 35° 71° (ENE) 15:46:41 435.120 FM
TMSAT-1 02 Aug 15:43:17 15:48:14 41° 261° (W) 15:53:13 436.925 FM
Saudisat 1A 02 Aug 15:59:57 16:04:16 57° 245° (WSW) 16:08:32 436.775 MHz
JAS-1B 02 Aug 16:06:50 16:14:07 28° 268° (W) 16:22:04 435.800 - 435.900 CW/SSB
Gurwin Techsat 1B 02 Aug 16:13:21 16:16:17 15° 267° (W) 16:19:15 435.225 FM
AO-7 02 Aug 16:14:56 16:23:18 85° 72° (ENE) 16:31:42 29.400 - 29.500 MHz
RS-15 02 Aug 16:28:51 16:31:39 11° 340° (NNW) 16:34:28 29.354 - 29.394 USB, Beacon 29.352 USB
OPAL 02 Aug 16:51:07 16:56:16 80° 105° (ESE) 17:01:26 ?
KITSAT 1 02 Aug 17:12:46 17:13:58 10° 261° (W) 17:15:09 435.175 FM
Uosat F 02 Aug 17:17:09 17:20:57 21° 264° (W) 17:24:45 435.120 FM
JAS-2 02 Aug 17:31:27 17:38:39 43° 71° (ENE) 17:45:21 435.800 - 435.900 CW/SSB, 435.910 FM
Hamsat 02 Aug 17:53:15 17:57:23 67° 76° (ENE) 18:01:33 145.90 MHz
AO-7 02 Aug 18:12:16 18:16:48 16° 267° (W) 18:21:22 29.400 - 29.500 MHz
OPAL 02 Aug 18:33:37 18:34:26 10° 299° (WNW) 18:35:16 ?
RS-15 02 Aug 18:48:25 18:51:49 12° 21° (NNE) 18:55:14 29.354 - 29.394 USB, Beacon 29.352 USB
HO-68 02 Aug 19:09:56 19:11:27 11° 56° (NE) 19:12:58 435.675 MHz FM
JAS-2 02 Aug 19:16:44 19:23:34 33° 263° (W) 19:30:03 435.800 - 435.900 CW/SSB, 435.910 FM
STRAND 1 02 Aug 19:22:53 19:27:59 72° 102° (ESE) 19:33:02 ?
SO-67 02 Aug 19:31:29 19:34:49 46° 261° (W) 19:38:10 435.3500 MHz FM
MaSat-1 02 Aug 20:03:14 20:07:11 68° 294° (WNW) 20:11:50 437.345 MHz
SO-50 02 Aug 20:09:10 20:13:47 47° 58° (ENE) 20:18:26 436.795 FM
ISS 02 Aug 20:31:59 20:35:04 37° 131° (SE) 20:38:11 145.800 FM
UKube-1 02 Aug 20:32:33 20:35:58 23° 70° (ENE) 20:39:24 145.840 MHz, 145.915 MHz
HO-68 02 Aug 20:50:47 20:57:55 73° 72° (ENE) 21:05:03 435.675 MHz FM
Oscar 10/S400 02 Aug 20:52:00 21:11:04 65° 158° (SSE) 22:25:24 145.825 - 145.975 CW/USB, Beacon 145.810 USB
RS-15 02 Aug 20:58:09 21:08:27 42° 51° (NE) 21:19:02 29.354 - 29.394 USB, Beacon 29.352 USB
STRAND 1 02 Aug 21:05:11 21:06:29 11° 297° (WNW) 21:07:47 ?
Oscar 11 02 Aug 21:11:29 21:15:15 31° 72° (ENE) 21:19:03 145.825 FM, Beacon 2401.500 USB
UOSAT-12 02 Aug 21:40:57 21:45:04 29° 55° (NE) 21:49:07 437.025 FM, 437.400 FM
FUNcube-1 02 Aug 21:48:01 21:51:40 28° 72° (ENE) 21:55:15 145.950 - 145.970 MHz USB
SO-50 02 Aug 21:51:07 21:53:57 16° 252° (WSW) 21:56:48 436.795 FM
UKube-1 02 Aug 22:08:28 22:12:01 24° 263° (W) 22:15:36 145.840 MHz, 145.915 MHz
ISS 02 Aug 22:09:30 22:11:52 18° 326° (NW) 22:14:15 145.800 FM
Sapphire 02 Aug 22:33:44 22:38:17 29° 107° (ESE) 22:42:52 437.095 MHz 1200 baud AX-25 AFSK
HO-68 02 Aug 22:41:54 22:46:06 16° 267° (W) 22:50:18 435.675 MHz FM
Oscar 11 02 Aug 22:48:37 22:51:27 17° 265° (W) 22:54:18 145.825 FM, Beacon 2401.500 USB
PCSat 02 Aug 23:05:38 23:10:57 65° 112° (ESE) 23:16:19 145.825 MHz
RS-15 02 Aug 23:10:21 23:20:55 52° 250° (WSW) 23:31:58 29.354 - 29.394 USB, Beacon 29.352 USB
UOSAT-12 02 Aug 23:21:14 23:25:04 25° 249° (WSW) 23:28:51 437.025 FM, 437.400 FM
FUNcube-1 02 Aug 23:25:02 23:28:01 18° 265° (W) 23:30:59 145.950 - 145.970 MHz USB
Sapphire 03 Aug 00:16:49 00:21:34 31° 302° (WNW) 00:26:22 437.095 MHz 1200 baud AX-25 AFSK
PANSAT 03 Aug 00:38:09 00:39:56 13° 157° (SSE) 00:41:43 not established
PCSat 03 Aug 00:51:39 00:54:49 16° 309° (NW) 00:58:00 145.825 MHz
